Regional Weather Roundup
Issued by NWS

Home | Current Version | Previous Version | Text Only | Print | Product List | Glossary Off
Versions: 1 2 3 4 5 6 7 8 9 10 11 12 13 14 15 16 17 18 19 20 21 22 23 24 25 26 27 28 29 30 31 32 33 34 35 36 37 38 39 40 41 42 43 44 45 46 47 48 49 50

000
ASUS43 KDMX 230707
RWRIA

WEATHER ROUNDUP FOR IOWA
NATIONAL WEATHER SERVICE DES MOINES IA
200 AM CDT SAT AUG 23 2014

NOTE: "FAIR" INDICATES FEW OR NO CLOUDS BELOW 12,000 FEET WITH NO
SIGNIFICANT WEATHER AND/OR OBSTRUCTIONS TO VISIBILITY.

* - THESE STATIONS ARE NOT NWS STATIONS...THUS NOT UNDER NWS
QUALITY CONTROL.  THEY ALSO DO NOT REPORT WEATHER SUCH
AS PRECIPITATION OR FOG.

IAZ001>003-012>014-020>022-031>034-043>046-230800-
   NORTHWEST IOWA

CITY           SKY/WX    TMP DP  RH WIND       PRES   REMARKS
CARROLL *      CLOUDY    70  70 100 NE3       29.94F
CHEROKEE *     CLOUDY    73  72  94 NE7       29.96S
DENISON *      CLEAR     70  70 100 NE5       29.94S
LE MARS *      CLEAR     75  72  88 E10       29.95S
ORANGE CITY *  CLEAR     75  68  78 E9        29.96F
SHELDON *      MOCLDY    72  70  94 E9        29.95F
SIOUX CITY     CLOUDY    75  72  90 SE5       29.94S
SPENCER        CLOUDY    73  69  87 E10       29.98F
STORM LAKE *   CLOUDY    73  73 100 NE10      29.97F
$$

IAZ055>058-069>071-079>083-090>094-230800-
   SOUTHWEST IOWA

CITY           SKY/WX    TMP DP  RH WIND       PRES   REMARKS
ATLANTIC *     CLOUDY    72  72 100 CALM      29.93S
AUDUBON *      CLEAR     73  72  94 CALM      29.96F FOG
CLARINDA *     RAIN      77  75  94 SE9       29.92R
COUNCIL BLFS * LGT RAIN  75  75 100 SW8       29.95R
CRESTON *      CLOUDY    73  73 100 NE8       29.93F
HARLAN  *      MOCLDY    72  72 100 CALM      29.98S
LAMONI         MOCLDY    77  75  93 SE3       29.92F
RED OAK *      HVY RAIN  73  72  94 W7        29.92F
SHENANDOAH *   LGT RAIN  75  73  94 NE7       29.91S
$$

IAZ047>049-059>061-072>074-084-230800-
   CENTRAL IOWA

CITY           SKY/WX    TMP DP  RH WIND       PRES   REMARKS
AMES           CLOUDY    75  75 100 CALM      29.94R FOG
ANKENY *       PTCLDY    75  75 100 NE6       29.94S
CHARITON *     MOCLDY    75  75 100 E5        29.94S FOG
DES MOINES     PTCLDY    78  75  90 E5        29.93S HX  81
GRINNELL*      CLOUDY    73  70  88 E6        29.97S
KNOXVILLE *    FOG       77  75  94 E3        29.93F VSB 1
MARSHALLTOWN   MOCLDY    73  70  90 SE9       29.95R
PELLA *        MOCLDY    77  75  94 CALM      29.95S FOG
PERRY *        CLOUDY    73  73 100 CALM      29.94S FOG
$$

IAZ004>006-015-016-023>025-035-036-230800-
   NORTH CENTRAL IOWA

CITY           SKY/WX    TMP DP  RH WIND       PRES   REMARKS
ALGONA *       PTCLDY    72  72 100 E6        29.98F FOG
CLARION *      MOCLDY    73  72  94 E8        29.97S
ESTHERVILLE    CLOUDY    70  69  97 E7        29.98F FOG
FORT DODGE *   MOCLDY    73  72  94 E8        29.97S
MASON CITY     MOCLDY    71  70  96 NE8       29.99F
FOREST CITY *  CLEAR     70  70 100 NE6       29.99S
IOWA FALLS *   CLOUDY    75  72  88 NE5       29.97S
$$

IAZ007>011-017>019-026>030-037>042-050>054-066-230800-
   NORTHEAST IOWA

CITY           SKY/WX    TMP DP  RH WIND       PRES   REMARKS
CEDAR RAPIDS   MOCLDY    75  75 100 NE6       29.95F
CHARLES CITY * CLEAR     72  70  94 NE7       29.99R
CLINTON *      MOCLDY    73  70  88 E5        29.98R
DECORAH *      MOCLDY    73  72  94 N5        29.98R
DUBUQUE        MOCLDY    72  72 100 CALM      29.98R FOG
MONTICELLO *   CLEAR     73  73 100 CALM      29.95S
OELWEIN *      MOCLDY    75  75 100 E5        29.98S FOG
WATERLOO       MOCLDY    76  72  87 SE6       29.95S
$$

IAZ064-065-067-068-078-230800-
   EAST CENTRAL IOWA

CITY           SKY/WX    TMP DP  RH WIND       PRES   REMARKS
DAVENPORT      MOCLDY    74  72  93 CALM      29.95S
IOWA CITY      MOCLDY    76  76 100 CALM      29.95S
MT. PLEASANT * CLEAR     75  73  94 CALM      29.95R FOG
MUSCATINE *    CLEAR     73  72  94 CALM      29.94S FOG
QUAD CITIES    CLOUDY    75  73  93 CALM      29.94R
$$

IAZ062-063-075>077-085>089-095>099-230800-
   SOUTHEAST IOWA

CITY           SKY/WX    TMP DP  RH WIND       PRES   REMARKS
BURLINGTON     CLEAR     76  76 100 CALM      29.94R FOG
FAIRFIELD *    CLEAR     75  73  94 CALM      29.95S FOG
FORT MADISON * CLEAR     79  77  94 CALM      29.95S FOG     HX  83
KEOKUK *       CLEAR     77  77 100 CALM      29.93S
OSKALOOSA *      N/A     75  75 100 CALM      29.94F FOG
CENTERVILLE *  CLEAR     75  75 100 E6        29.95S
OTTUMWA        PTCLDY    75  74  96 SE5       29.94S FOG
WASHINGTON *   PTCLDY    73  73 100 SE5       29.94S FOG
$$

ABBREVIATIONS USED IN REMARKS
   TC - TEMPERATURES IN CELSIUS
  WCI - WIND CHILL INDEX
   HX - HEAT INDEX
  VSB - VISIBILITY
$$



USA.gov is the U.S. government's official web portal to all federal, state and local government web resources and services.